Tracking 19145 objects as of 25-Apr-2018
HD Live streaming from Space Station
objects crossing your sky now

FENGYUN 1C DEB

Track FENGYUN 1C DEB now!
10-day predictions


NORAD ID: 29925
Int'l Code: 1999-025HX
Perigee: 621.4 km
Apogee: 717.8 km
Inclination: 99.0 °
Period: 98.0 minutes
Semi major axis: 7040 km
RCS: 0.0224 m2 (small)
Launch date: May 10, 1999
Source: People's Republic of China (PRC)
Launch site: Taiyaun Space Center, China (TSC)

Note: This is SATELLITE DEBRIS
aabbcc
Your satellite tracking list
Your tracking list is empty




NASA's NSSDC Master Catalog

Two Line Element Set (TLE):
1 29925U 99025HX  18114.86384987 +.00001834 +00000-0 +30853-3 0  9998
2 29925 099.0284 085.9894 0068453 272.6632 116.9775 14.69563591596092
Source of the keplerian elements: AFSPC